Year,Month,Day,Hour,Minute,Value (Times are PST for temperature in C)
2008,01,24,08,26,-0.60
2008,01,24,08,27,-0.60
2008,01,24,08,28,-0.60
2008,01,24,08,29,-0.60
2008,01,24,08,30,-0.60
2008,01,24,08,31,-0.60
2008,01,24,08,32,-0.60
2008,01,24,08,33,-0.60
2008,01,24,08,34,-0.60
2008,01,24,08,35,-0.60
2008,01,24,08,36,-0.60
2008,01,24,08,37,-0.60
2008,01,24,08,38,-0.40
2008,01,24,08,39,-0.40
2008,01,24,08,40,-0.40
2008,01,24,08,41,-0.40
2008,01,24,08,42,-0.40
2008,01,24,08,43,-0.40
2008,01,24,08,44,-0.40
2008,01,24,08,45,-0.40
2008,01,24,08,46,-0.40
2008,01,24,08,47,-0.40
2008,01,24,08,48,-0.30
2008,01,24,08,49,-0.30
2008,01,24,08,50,-0.30
2008,01,24,08,51,-0.30
2008,01,24,08,52,-0.20
2008,01,24,08,53,-0.20
2008,01,24,08,54,-0.20
2008,01,24,08,55,-0.10
2008,01,24,08,56,-0.10
2008,01,24,08,57,-0.10
2008,01,24,08,58,-0.10
2008,01,24,08,59,-0.10
2008,01,24,09,00,0.00
2008,01,24,09,01,0.10
2008,01,24,09,02,0.10
2008,01,24,09,03,0.10
2008,01,24,09,04,0.10
2008,01,24,09,05,0.10
2008,01,24,09,06,0.20
2008,01,24,09,07,0.20
2008,01,24,09,08,0.20
2008,01,24,09,09,0.30
2008,01,24,09,10,0.30
2008,01,24,09,11,0.30
2008,01,24,09,12,0.30
2008,01,24,09,13,0.40
2008,01,24,09,14,0.40
2008,01,24,09,15,0.40
2008,01,24,09,16,0.40
2008,01,24,09,17,0.40
2008,01,24,09,18,0.40
2008,01,24,09,19,0.50
2008,01,24,09,20,0.50
2008,01,24,09,21,0.50
2008,01,24,09,22,0.50
2008,01,24,09,23,0.60
2008,01,24,09,24,0.60
2008,01,24,09,25,0.70
2008,01,24,09,26,0.70
2008,01,24,09,27,0.70
2008,01,24,09,28,0.80
2008,01,24,09,29,0.80
2008,01,24,09,30,0.80
2008,01,24,09,31,0.80
2008,01,24,09,32,0.80
2008,01,24,09,33,0.80
2008,01,24,09,34,0.80
2008,01,24,09,35,0.80
2008,01,24,09,36,0.90
2008,01,24,09,37,0.90
2008,01,24,09,38,0.90
2008,01,24,09,39,1.00
2008,01,24,09,40,1.00
2008,01,24,09,41,1.00
2008,01,24,09,42,1.10
2008,01,24,09,43,1.10
2008,01,24,09,44,1.10
2008,01,24,09,45,1.20
2008,01,24,09,46,1.20
2008,01,24,09,47,1.30
2008,01,24,09,48,1.30
2008,01,24,09,49,1.30
2008,01,24,09,50,1.40
2008,01,24,09,51,1.40
2008,01,24,09,52,1.50
2008,01,24,09,53,1.50
2008,01,24,09,54,1.50
2008,01,24,09,55,1.60
2008,01,24,09,56,1.60
2008,01,24,09,57,1.60
2008,01,24,09,58,1.70
2008,01,24,09,59,1.70
2008,01,24,10,00,1.80
2008,01,24,10,01,1.80
2008,01,24,10,02,1.80
2008,01,24,10,03,1.80
2008,01,24,10,04,1.90
2008,01,24,10,05,1.90
2008,01,24,10,06,2.00
2008,01,24,10,07,2.00
2008,01,24,10,08,2.00
2008,01,24,10,09,2.10
2008,01,24,10,10,2.10
2008,01,24,10,11,2.10
2008,01,24,10,12,2.10
2008,01,24,10,13,2.10
2008,01,24,10,14,2.10
2008,01,24,10,15,2.20
2008,01,24,10,16,2.20
2008,01,24,10,17,2.20
2008,01,24,10,18,2.20
2008,01,24,10,19,2.20
2008,01,24,10,20,2.20
2008,01,24,10,21,2.20
2008,01,24,10,22,2.20
2008,01,24,10,23,2.20
2008,01,24,10,24,2.20
2008,01,24,10,25,2.30
2008,01,24,10,26,2.30
2008,01,24,10,27,2.30
2008,01,24,10,28,2.30
2008,01,24,10,29,2.30
2008,01,24,10,30,2.40
2008,01,24,10,31,2.40
2008,01,24,10,32,2.40
2008,01,24,10,33,2.40
2008,01,24,10,34,2.50
2008,01,24,10,35,2.50
2008,01,24,10,36,2.50
2008,01,24,10,37,2.50
2008,01,24,10,38,2.60
2008,01,24,10,39,2.60
2008,01,24,10,40,2.60
2008,01,24,10,41,2.60
2008,01,24,10,42,2.70
2008,01,24,10,43,2.70
2008,01,24,10,44,2.70
2008,01,24,10,45,2.70
2008,01,24,10,46,2.70
2008,01,24,10,47,2.80
2008,01,24,10,48,2.80
2008,01,24,10,49,2.80
2008,01,24,10,50,2.80
2008,01,24,10,51,2.90
2008,01,24,10,52,2.90
2008,01,24,10,53,2.90
2008,01,24,10,54,2.90
2008,01,24,10,55,2.90
2008,01,24,10,56,2.90
2008,01,24,10,57,2.90
2008,01,24,10,58,3.10
2008,01,24,10,59,3.10
2008,01,24,11,00,3.10
2008,01,24,11,01,3.10
2008,01,24,11,02,3.10
2008,01,24,11,03,3.10
2008,01,24,11,04,3.10
2008,01,24,11,05,3.20
2008,01,24,11,06,3.20
2008,01,24,11,07,3.20
2008,01,24,11,08,3.30
2008,01,24,11,09,3.30
2008,01,24,11,10,3.30
2008,01,24,11,11,3.30
2008,01,24,11,12,3.40
2008,01,24,11,13,3.40
2008,01,24,11,14,3.40
2008,01,24,11,15,3.50
2008,01,24,11,16,3.50
2008,01,24,11,17,3.50
2008,01,24,11,18,3.50
2008,01,24,11,19,3.50
2008,01,24,11,20,3.50
2008,01,24,11,21,3.60
2008,01,24,11,22,3.60
2008,01,24,11,23,3.60
2008,01,24,11,24,3.60
2008,01,24,11,25,3.70
2008,01,24,11,26,3.70
2008,01,24,11,27,3.70
2008,01,24,11,28,3.70
2008,01,24,11,29,3.70
2008,01,24,11,30,3.70
2008,01,24,11,31,3.70
2008,01,24,11,32,3.70
2008,01,24,11,33,3.70
2008,01,24,11,34,3.80
2008,01,24,11,35,3.80
2008,01,24,11,36,3.80
2008,01,24,11,37,3.80
2008,01,24,11,38,3.70
2008,01,24,11,39,3.70
2008,01,24,11,40,3.70
2008,01,24,11,41,3.70
2008,01,24,11,42,3.70
2008,01,24,11,43,3.70
2008,01,24,11,44,3.70
2008,01,24,11,45,3.80
2008,01,24,11,46,3.80
2008,01,24,11,47,3.80
2008,01,24,11,48,3.80
2008,01,24,11,49,3.80
2008,01,24,11,50,3.80
2008,01,24,11,51,3.70
2008,01,24,11,52,3.70
2008,01,24,11,53,3.80
2008,01,24,11,54,3.80
2008,01,24,11,55,3.80
2008,01,24,11,56,3.80
2008,01,24,11,57,3.80
2008,01,24,11,58,3.80
2008,01,24,11,59,3.80
2008,01,24,12,00,3.80
2008,01,24,12,01,3.80
2008,01,24,12,02,3.80
2008,01,24,12,03,3.80
2008,01,24,12,04,3.80
2008,01,24,12,05,3.80
2008,01,24,12,06,3.80
2008,01,24,12,07,3.80
2008,01,24,12,08,3.90
2008,01,24,12,09,4.00
2008,01,24,12,10,4.00
2008,01,24,12,11,4.10
2008,01,24,12,12,4.10
2008,01,24,12,13,4.10
2008,01,24,12,14,4.10
2008,01,24,12,15,4.10
2008,01,24,12,16,4.10
2008,01,24,12,17,4.10
2008,01,24,12,18,4.10
2008,01,24,12,19,4.10
2008,01,24,12,20,4.20
2008,01,24,12,21,4.10
2008,01,24,12,22,4.10
2008,01,24,12,23,4.10
2008,01,24,12,24,4.10
2008,01,24,12,25,4.10
2008,01,24,12,26,4.20
2008,01,24,12,27,4.20
2008,01,24,12,28,4.20
2008,01,24,12,29,4.20
2008,01,24,12,30,4.10
2008,01,24,12,31,4.10
2008,01,24,12,32,4.10
2008,01,24,12,33,4.20
2008,01,24,12,34,4.20
2008,01,24,12,35,4.20
2008,01,24,12,36,4.20
2008,01,24,12,37,4.20
2008,01,24,12,38,4.20
2008,01,24,12,39,4.20
2008,01,24,12,40,4.20
2008,01,24,12,41,4.20
2008,01,24,12,42,4.20
2008,01,24,12,43,4.20
2008,01,24,12,44,4.10
2008,01,24,12,45,4.10
2008,01,24,12,46,4.10
2008,01,24,12,47,4.20
2008,01,24,12,48,4.20
2008,01,24,12,49,4.20
2008,01,24,12,50,4.20
2008,01,24,12,51,4.30
2008,01,24,12,52,4.30
2008,01,24,12,53,4.40
2008,01,24,12,54,4.40
2008,01,24,12,55,4.50
2008,01,24,12,56,4.50
2008,01,24,12,57,4.50
2008,01,24,12,58,4.50
2008,01,24,12,59,4.50
2008,01,24,13,00,4.50
2008,01,24,13,01,4.50
2008,01,24,13,02,4.50
2008,01,24,13,03,4.50
2008,01,24,13,04,4.50
2008,01,24,13,05,4.50
2008,01,24,13,06,4.60
2008,01,24,13,07,4.50
2008,01,24,13,08,4.60
2008,01,24,13,09,4.60
2008,01,24,13,10,4.60
2008,01,24,13,11,4.60
2008,01,24,13,12,4.60
2008,01,24,13,13,4.60
2008,01,24,13,14,4.60
2008,01,24,13,15,4.70
2008,01,24,13,16,4.70
2008,01,24,13,17,4.70
2008,01,24,13,18,4.70
2008,01,24,13,19,4.60
2008,01,24,13,20,4.60
2008,01,24,13,21,4.60
2008,01,24,13,22,4.60
2008,01,24,13,23,4.60
2008,01,24,13,24,4.60
2008,01,24,13,25,4.60
2008,01,24,13,26,4.60
2008,01,24,13,27,4.60
2008,01,24,13,28,4.60
2008,01,24,13,29,4.60
2008,01,24,13,30,4.60
2008,01,24,13,31,4.60
2008,01,24,13,32,4.60
2008,01,24,13,33,4.60
2008,01,24,13,34,4.60
2008,01,24,13,35,4.60
2008,01,24,13,36,4.60
2008,01,24,13,37,4.70
2008,01,24,13,38,4.70
2008,01,24,13,39,4.70
2008,01,24,13,40,4.80
2008,01,24,13,41,4.90
2008,01,24,13,42,4.90
2008,01,24,13,43,4.90
2008,01,24,13,44,4.90
2008,01,24,13,45,4.80
2008,01,24,13,46,4.80
2008,01,24,13,47,4.70
2008,01,24,13,48,4.70
2008,01,24,13,49,4.60
2008,01,24,13,50,4.60
2008,01,24,13,51,4.50
2008,01,24,13,52,4.50
2008,01,24,13,53,4.40
2008,01,24,13,54,4.40
2008,01,24,13,55,4.40
2008,01,24,13,56,4.40
2008,01,24,13,57,4.40
2008,01,24,13,58,4.40
2008,01,24,13,59,4.40
2008,01,24,14,00,4.40
2008,01,24,14,01,4.40
2008,01,24,14,02,4.40
2008,01,24,14,03,4.30
2008,01,24,14,04,4.30
2008,01,24,14,05,4.30
2008,01,24,14,06,4.30
2008,01,24,14,07,4.30
2008,01,24,14,08,4.30
2008,01,24,14,09,4.30
2008,01,24,14,10,4.30
2008,01,24,14,11,4.30
2008,01,24,14,12,4.30
2008,01,24,14,13,4.30
2008,01,24,14,14,4.30
2008,01,24,14,15,4.20
2008,01,24,14,16,4.20
2008,01,24,14,17,4.20
2008,01,24,14,18,4.20
2008,01,24,14,19,4.20
2008,01,24,14,20,4.20
2008,01,24,14,21,4.20
2008,01,24,14,22,4.20
2008,01,24,14,23,4.30
2008,01,24,14,24,4.30
2008,01,24,14,25,4.30
2008,01,24,14,26,4.40
2008,01,24,14,27,4.40
2008,01,24,14,28,4.50
2008,01,24,14,29,4.50
2008,01,24,14,30,4.50
2008,01,24,14,31,4.60
2008,01,24,14,32,4.60
2008,01,24,14,33,4.60
2008,01,24,14,34,4.60
2008,01,24,14,35,4.70
2008,01,24,14,36,4.70
2008,01,24,14,37,4.70
2008,01,24,14,38,4.80
2008,01,24,14,39,4.80
2008,01,24,14,40,4.80
2008,01,24,14,41,4.90
2008,01,24,14,42,4.90
2008,01,24,14,43,4.90
2008,01,24,14,44,4.90
2008,01,24,14,45,4.80
2008,01,24,14,46,4.80
2008,01,24,14,47,4.80
2008,01,24,14,48,4.90
2008,01,24,14,49,4.90
2008,01,24,14,50,4.90
2008,01,24,14,51,4.90
2008,01,24,14,52,4.90
2008,01,24,14,53,4.90
2008,01,24,14,54,4.90
2008,01,24,14,55,5.00
2008,01,24,14,56,5.10
2008,01,24,14,57,5.10
2008,01,24,14,58,5.10
2008,01,24,14,59,5.10
2008,01,24,15,00,5.10
2008,01,24,15,01,5.10
2008,01,24,15,02,4.90
2008,01,24,15,03,4.90
2008,01,24,15,04,4.90
2008,01,24,15,05,4.90
2008,01,24,15,06,4.90
2008,01,24,15,07,5.00
2008,01,24,15,08,5.10
2008,01,24,15,09,5.10
2008,01,24,15,10,5.10
2008,01,24,15,11,5.10
2008,01,24,15,12,5.10
2008,01,24,15,13,5.10
2008,01,24,15,14,5.10
2008,01,24,15,15,5.10
2008,01,24,15,16,5.10
2008,01,24,15,17,5.10
2008,01,24,15,18,5.10
2008,01,24,15,19,5.10
2008,01,24,15,20,5.10
2008,01,24,15,21,4.90
2008,01,24,15,22,4.90
2008,01,24,15,23,4.90
2008,01,24,15,24,4.90
2008,01,24,15,25,4.80
2008,01,24,15,26,4.80
2008,01,24,15,27,4.80
2008,01,24,15,28,4.80
2008,01,24,15,29,4.70
2008,01,24,15,30,4.70
2008,01,24,15,31,4.70
2008,01,24,15,32,4.70
2008,01,24,15,33,4.60
2008,01,24,15,34,4.60
2008,01,24,15,35,4.60
2008,01,24,15,36,4.60
2008,01,24,15,37,4.60
2008,01,24,15,38,4.60
2008,01,24,15,39,4.60
2008,01,24,15,40,4.60
2008,01,24,15,41,4.60
2008,01,24,15,42,4.60
2008,01,24,15,43,4.60
2008,01,24,15,44,4.60
2008,01,24,15,45,4.60
2008,01,24,15,46,4.60
2008,01,24,15,47,4.60
2008,01,24,15,48,4.60
2008,01,24,15,49,4.70
2008,01,24,15,50,4.70
2008,01,24,15,51,4.80
2008,01,24,15,52,4.80
2008,01,24,15,53,4.80
2008,01,24,15,54,4.80
2008,01,24,15,55,4.80
2008,01,24,15,56,4.80
2008,01,24,15,57,4.80
2008,01,24,15,58,4.80
2008,01,24,15,59,4.80
2008,01,24,16,00,4.80
2008,01,24,16,01,4.80
2008,01,24,16,02,4.80
2008,01,24,16,03,4.80
2008,01,24,16,04,4.80
2008,01,24,16,05,4.80
2008,01,24,16,06,4.80
2008,01,24,16,07,4.70
2008,01,24,16,08,4.70
2008,01,24,16,09,4.70
2008,01,24,16,10,4.70
2008,01,24,16,11,4.70
2008,01,24,16,12,4.70
2008,01,24,16,13,4.70
2008,01,24,16,14,4.60
2008,01,24,16,15,4.60
2008,01,24,16,16,4.60
2008,01,24,16,17,4.60
2008,01,24,16,18,4.60
2008,01,24,16,19,4.60
2008,01,24,16,20,4.60
2008,01,24,16,21,4.60
2008,01,24,16,22,4.60
2008,01,24,16,23,4.60
2008,01,24,16,24,4.60
2008,01,24,16,25,4.60
2008,01,24,16,26,4.60
2008,01,24,16,27,4.60
2008,01,24,16,28,4.60
2008,01,24,16,29,4.60
2008,01,24,16,30,4.60
2008,01,24,16,31,4.60
2008,01,24,16,32,4.60
2008,01,24,16,33,4.60
2008,01,24,16,34,4.60
2008,01,24,16,35,4.60
2008,01,24,16,36,4.60
2008,01,24,16,37,4.60
2008,01,24,16,38,4.60
2008,01,24,16,39,4.60
2008,01,24,16,40,4.60
2008,01,24,16,41,4.60
2008,01,24,16,42,4.60
2008,01,24,16,43,4.60
2008,01,24,16,44,4.50
2008,01,24,16,45,4.50
2008,01,24,16,46,4.50
2008,01,24,16,47,4.50
2008,01,24,16,48,4.50
2008,01,24,16,49,4.50
2008,01,24,16,50,4.40
2008,01,24,16,51,4.40
2008,01,24,16,52,4.40
2008,01,24,16,53,4.40
2008,01,24,16,54,4.40
2008,01,24,16,55,4.40
2008,01,24,16,56,4.30
2008,01,24,16,57,4.30
2008,01,24,16,58,4.30
2008,01,24,16,59,4.30
2008,01,24,17,00,4.30
2008,01,24,17,01,4.30
2008,01,24,17,02,4.20
2008,01,24,17,03,4.20
2008,01,24,17,04,4.20
2008,01,24,17,05,4.20
2008,01,24,17,06,4.20
2008,01,24,17,07,4.20
2008,01,24,17,08,4.20
2008,01,24,17,09,4.20
2008,01,24,17,10,4.20
2008,01,24,17,11,4.20
2008,01,24,17,12,4.20
2008,01,24,17,13,4.10
2008,01,24,17,14,4.10
2008,01,24,17,15,4.10
2008,01,24,17,16,4.10
2008,01,24,17,17,4.10
2008,01,24,17,18,4.00
2008,01,24,17,19,4.00
2008,01,24,17,20,4.00
2008,01,24,17,21,4.00
2008,01,24,17,22,4.00
2008,01,24,17,23,4.00
2008,01,24,17,24,4.00
2008,01,24,17,25,3.90
2008,01,24,17,26,3.90
2008,01,24,17,27,3.90
2008,01,24,17,28,3.90
2008,01,24,17,29,3.90
2008,01,24,17,30,3.90
2008,01,24,17,31,3.80
2008,01,24,17,32,3.80
2008,01,24,17,33,3.80
2008,01,24,17,34,3.80
2008,01,24,17,35,3.80
2008,01,24,17,36,3.80
2008,01,24,17,37,3.80
2008,01,24,17,38,3.80
2008,01,24,17,39,3.70
2008,01,24,17,40,3.70
2008,01,24,17,41,3.70
2008,01,24,17,42,3.70
2008,01,24,17,43,3.70
2008,01,24,17,44,3.60
2008,01,24,17,45,3.60
2008,01,24,17,46,3.60
2008,01,24,17,47,3.60
2008,01,24,17,48,3.60
2008,01,24,17,49,3.60
2008,01,24,17,50,3.60
2008,01,24,17,51,3.60
2008,01,24,17,52,3.50
2008,01,24,17,53,3.50
2008,01,24,17,54,3.50
2008,01,24,17,55,3.50
2008,01,24,17,56,3.50
2008,01,24,17,57,3.50
2008,01,24,17,58,3.40
2008,01,24,17,59,3.40
2008,01,24,18,00,3.40
2008,01,24,18,01,3.40
2008,01,24,18,02,3.40
2008,01,24,18,03,3.30
2008,01,24,18,04,3.30
2008,01,24,18,05,3.30
2008,01,24,18,06,3.30
2008,01,24,18,07,3.30
2008,01,24,18,08,3.30
2008,01,24,18,09,3.30
2008,01,24,18,10,3.30
2008,01,24,18,11,3.20
2008,01,24,18,12,3.20
2008,01,24,18,13,3.20
2008,01,24,18,14,3.20
2008,01,24,18,15,3.20
2008,01,24,18,16,3.10
2008,01,24,18,17,3.10
2008,01,24,18,18,3.10
2008,01,24,18,19,3.10
2008,01,24,18,20,3.10
2008,01,24,18,21,3.10
2008,01,24,18,22,3.10
2008,01,24,18,23,3.10
2008,01,24,18,24,3.10
2008,01,24,18,25,3.10
2008,01,24,18,26,3.10
2008,01,24,18,27,3.10
2008,01,24,18,28,2.90
2008,01,24,18,29,2.90
2008,01,24,18,30,2.90
2008,01,24,18,31,2.90
2008,01,24,18,32,2.90
2008,01,24,18,33,2.90
2008,01,24,18,34,2.90
2008,01,24,18,35,2.90
2008,01,24,18,36,2.80
2008,01,24,18,37,2.80
2008,01,24,18,38,2.80
2008,01,24,18,39,2.80
2008,01,24,18,40,2.70
2008,01,24,18,41,2.70
2008,01,24,18,42,2.70
2008,01,24,18,43,2.70
2008,01,24,18,44,2.70
2008,01,24,18,45,2.70
2008,01,24,18,46,2.70
2008,01,24,18,47,2.60
2008,01,24,18,48,2.60
2008,01,24,18,49,2.60
2008,01,24,18,50,2.60
2008,01,24,18,51,2.50
2008,01,24,18,52,2.50
2008,01,24,18,53,2.50
2008,01,24,18,54,2.40
2008,01,24,18,55,2.40
2008,01,24,18,56,2.40
2008,01,24,18,57,2.40
2008,01,24,18,58,2.40
2008,01,24,18,59,2.40
2008,01,24,19,00,2.40
2008,01,24,19,01,2.40
2008,01,24,19,02,2.40
2008,01,24,19,03,2.40
2008,01,24,19,04,2.40
2008,01,24,19,05,2.30
2008,01,24,19,06,2.30
2008,01,24,19,07,2.30
2008,01,24,19,08,2.30
2008,01,24,19,09,2.30
2008,01,24,19,10,2.20
2008,01,24,19,11,2.20
2008,01,24,19,12,2.20
2008,01,24,19,13,2.20
2008,01,24,19,14,2.20
2008,01,24,19,15,2.20
2008,01,24,19,16,2.20
2008,01,24,19,17,2.20
2008,01,24,19,18,2.20
2008,01,24,19,19,2.20
2008,01,24,19,20,2.20
2008,01,24,19,21,2.20
2008,01,24,19,22,2.20
2008,01,24,19,23,2.20
2008,01,24,19,24,2.20
2008,01,24,19,25,2.20
2008,01,24,19,26,2.20
2008,01,24,19,27,2.20
2008,01,24,19,28,2.20
2008,01,24,19,29,2.20
2008,01,24,19,30,2.20
2008,01,24,19,31,2.20
2008,01,24,19,32,2.20
2008,01,24,19,33,2.20
2008,01,24,19,34,2.20
2008,01,24,19,35,2.20
2008,01,24,19,36,2.10
2008,01,24,19,37,2.10
2008,01,24,19,38,2.00
2008,01,24,19,39,1.90
2008,01,24,19,40,1.90
2008,01,24,19,41,1.80
2008,01,24,19,42,1.80
2008,01,24,19,43,1.70
2008,01,24,19,44,1.70
2008,01,24,19,45,1.60
2008,01,24,19,46,1.60
2008,01,24,19,47,1.50
2008,01,24,19,48,1.50
2008,01,24,19,49,1.40
2008,01,24,19,50,1.40
2008,01,24,19,51,1.40
2008,01,24,19,52,1.40
2008,01,24,19,53,1.40
2008,01,24,19,54,1.40
2008,01,24,19,55,1.30
2008,01,24,19,56,1.30
2008,01,24,19,57,1.30
2008,01,24,19,58,1.20
2008,01,24,19,59,1.20
2008,01,24,20,00,1.10
2008,01,24,20,01,1.10
2008,01,24,20,02,1.00
2008,01,24,20,03,0.90
2008,01,24,20,04,0.80
2008,01,24,20,05,0.80
2008,01,24,20,06,0.80
2008,01,24,20,07,0.70
2008,01,24,20,08,0.70
2008,01,24,20,09,0.70
2008,01,24,20,10,0.70
2008,01,24,20,11,0.60
2008,01,24,20,12,0.60
2008,01,24,20,13,0.60
2008,01,24,20,14,0.60
2008,01,24,20,15,0.60
2008,01,24,20,16,0.60
2008,01,24,20,17,0.50
2008,01,24,20,18,0.50
2008,01,24,20,19,0.50
2008,01,24,20,20,0.50
2008,01,24,20,21,0.50
2008,01,24,20,22,0.40
2008,01,24,20,23,0.40
2008,01,24,20,24,0.40
2008,01,24,20,25,0.40
2008,01,24,20,26,0.30
2008,01,24,20,27,0.30
2008,01,24,20,28,0.30
2008,01,24,20,29,0.30
2008,01,24,20,30,0.30
2008,01,24,20,31,0.20
2008,01,24,20,32,0.20
2008,01,24,20,33,0.20
2008,01,24,20,34,0.10
2008,01,24,20,35,0.10
2008,01,24,20,36,0.10
2008,01,24,20,37,0.10
2008,01,24,20,38,0.00
2008,01,24,20,39,-0.10
2008,01,24,20,40,-0.10
2008,01,24,20,41,-0.10
2008,01,24,20,42,-0.10
2008,01,24,20,43,-0.20
2008,01,24,20,44,-0.20
2008,01,24,20,45,-0.20
2008,01,24,20,46,-0.30
2008,01,24,20,47,-0.30
2008,01,24,20,48,-0.30
2008,01,24,20,49,-0.30
2008,01,24,20,50,-0.40
2008,01,24,20,51,-0.40
2008,01,24,20,52,-0.40
2008,01,24,20,53,-0.40
2008,01,24,20,54,-0.50
2008,01,24,20,55,-0.60
2008,01,24,20,56,-0.60
2008,01,24,20,57,-0.60
2008,01,24,20,58,-0.60
2008,01,24,20,59,-0.60
2008,01,24,21,00,-0.60
2008,01,24,21,01,-0.70
2008,01,24,21,02,-0.70
2008,01,24,21,03,-0.70
2008,01,24,21,04,-0.70
2008,01,24,21,05,-0.60
2008,01,24,21,06,-0.40
2008,01,24,21,07,-0.30
2008,01,24,21,08,-0.20
2008,01,24,21,09,-0.20
2008,01,24,21,10,-0.20
2008,01,24,21,11,-0.30
2008,01,24,21,12,-0.30
2008,01,24,21,13,-0.40
2008,01,24,21,14,-0.40
2008,01,24,21,15,-0.40
2008,01,24,21,16,-0.60
2008,01,24,21,17,-0.60
2008,01,24,21,18,-0.60
2008,01,24,21,19,-0.60
2008,01,24,21,20,-0.70
2008,01,24,21,21,-0.70
2008,01,24,21,22,-0.70
2008,01,24,21,23,-0.80
2008,01,24,21,24,-0.80
2008,01,24,21,25,-0.80
2008,01,24,21,26,-0.90
2008,01,24,21,27,-0.90
2008,01,24,21,28,-0.90
2008,01,24,21,29,-0.90
2008,01,24,21,30,-0.90
2008,01,24,21,31,-0.90
2008,01,24,21,32,-1.00
2008,01,24,21,33,-1.10
2008,01,24,21,34,-1.10
2008,01,24,21,35,-1.10
2008,01,24,21,36,-1.10
2008,01,24,21,37,-1.10
2008,01,24,21,38,-1.10
2008,01,24,21,39,-1.10
2008,01,24,21,40,-1.10
2008,01,24,21,41,-1.10
2008,01,24,21,42,-1.10
2008,01,24,21,43,-1.10
2008,01,24,21,44,-1.10
2008,01,24,21,45,-1.10
2008,01,24,21,46,-1.10
2008,01,24,21,47,-1.10
2008,01,24,21,48,-1.20
2008,01,24,21,49,-1.20
2008,01,24,21,50,-1.20
2008,01,24,21,51,-1.20
2008,01,24,21,52,-1.30
2008,01,24,21,53,-1.30
2008,01,24,21,54,-1.30
2008,01,24,21,55,-1.30
2008,01,24,21,56,-1.40
2008,01,24,21,57,-1.40
2008,01,24,21,58,-1.40
2008,01,24,21,59,-1.40
2008,01,24,22,00,-1.30
2008,01,24,22,01,-1.30
2008,01,24,22,02,-1.30
2008,01,24,22,03,-1.30
2008,01,24,22,04,-1.30
2008,01,24,22,05,-1.30
2008,01,24,22,06,-1.30
2008,01,24,22,07,-1.30
2008,01,24,22,08,-1.30
2008,01,24,22,09,-1.30
